FENGYUN 1C DEB, 30706

Orbit data source: Space-Track

FENGYUN 1C DEB, 30706 is space debris in SSO originally from a launch on Mon, 10 May 1999 UTC launched from the Taiyaun Space Center, China (TSC). Fengyun 1C debris stems from the Chinese weather satellite Fengyun-1C, which was intentionally destroyed by a Chinese anti-satellite missile in 2007. This event dramatically increased the amount of space debris, with thousands of trackable fragments posing hazards to satellites and human spaceflight. The Fengyun 1C debris cloud has become a focal point in discussions about space sustainability and the need for international regulations to prevent the creation of new debris.

Loading next visibility...
Identifier
30706, 1999-025ARQ
Orbit
SSO
Country
Flag of CNCN / PRC
Related business
Manufacturer
Unknown
Mission
Spacecraft
Bus & Motor
Unknown
Mass
Unknown
Launch date (UTC)
1999-05-10 (27 years ago)
Launch vehicle
Unknown
Launch site
Taiyaun Space Center, China (TSC)
Object type
Payload
Rocket body
Debris
Shape & HBR
Unknown shape, 0.1 m
Radar Cross Section
Medium (>0.1 m² and <1 m²)

Expand to show TLE details & history
Last TLE update: 17 hours ago

TLE from 17 hours ago
0 FENGYUN 1C DEB
1 30706U 99025ARQ 26257.70197468  .00001102  00000-0  46737-3 0  9999
2 30706  99.0461 166.9709 0027921  54.4111 305.9664 14.27347141 15634
Epoch: 2026-09-14T16:50Z
TLE epoch observation values (Epoch: 2026-09-14T16:50:50.612Z)
Latitude
-0.00006°
Longitude
-79.41846°
Altitude
791.788 km
Speed
7.464 km/s
True Right ascension
11h 07m 53s
True Declination
0° 00' 00"
Sunlit
Object was in daylight at epoch
Visualization orbit readout
Latitude
Unknown
Longitude
Unknown
Altitude
Unknown
Speed
Unknown
Apparent Right ascension
Unknown
Apparent Declination
Unknown
Sunlit
N/A
Visualization observer readout
Local Sidereal Time
02:57:55
Azimuth
Unknown
Elevation
Unknown
Doppler factor
Unknown
Orbital elements
Apogee altitude
817.813 km
Perigee altitude
777.741 km
Semi-major axis
7,175.914 km
Eccentricity
0.00279
Inclination
99.0461°
RAAN
166.9709°
Arg. of periapsis
54.4111°
True anomaly
305.70691°
Mean anomaly
305.9664°
Eccentric anomaly
305.83671°
Mean motion
3.57049 °/min
Orbital period
100.83 mins
BSTAR
0.00046737
Loading maneuver chart data...
Computing Atmospheric mass density...
Loading historical data...
Loading historical data...
Loading historical data...
Loading historical data...
Loading historical data...
Loading historical data...
Loading historical data...

Documentation

Showing up to 5 results
|